Theta_e
291 287 285 285 288 289 287 289 290 291 288 286 285 285 284 283 284 285 286 288 289 287 285 288 286 284 287 287 288 289 289 288 288 287 287 287 287 287 287 287 287 287 287 288 288 289 289 289 290 290 291 291 291 291 291 291 292 292 292 292 292 294 295 296 298 299 300 301 299 299 298 296 297 298 298 297 298 298 298 299 301 302 303 303 304 306
292 286 285 289 290 290 290 289 288 287 286 286 285 284 283 282 285 287 287 288 287 288 283 283 284 288 288 286 288 288 288 286 286 286 286 286 286 286 286 286 286 286 287 287 287 288 288 288 289 290 290 290 289 290 290 290 290 291 291 291 291 292 293 294 295 296 296 297 297 296 295 294 295 294 294 293 294 294 295 294 295 296 297 297 298 299
286 286 289 291 292 289 288 287 286 286 286 285 284 283 282 284 283 286 287 285 286 287 285 283 285 288 286 286 287 287 286 286 286 286 286 286 285 285 285 285 285 286 286 286 286 287 287 287 288 288 289 289 289 289 289 290 290 290 290 291 291 291 292 292 293 294 294 294 295 295 293 294 293 293 293 293 293 293 292 292 292 293 293 293 293 294
286 285 290 293 290 289 288 285 285 285 285 283 283 282 283 283 284 282 285 285 287 286 285 284 285 288 284 286 286 286 286 286 286 286 285 286 285 284 285 284 284 284 284 284 285 285 286 286 286 287 287 288 288 288 289 289 289 290 290 290 290 291 291 292 292 293 293 294 293 294 293 293 293 292 292 292 292 292 292 291 291 291 291 291 291 291
291 289 289 289 288 289 288 285 285 284 283 282 284 283 283 284 284 286 285 285 284 286 283 285 284 284 283 285 284 286 286 286 285 285 285 286 285 285 285 285 285 284 284 284 284 285 285 285 285 285 286 287 287 287 287 288 288 289 289 289 290 290 290 291 292 292 292 293 292 292 293 292 291 291 291 291 290 290 290 290 289 289 289 290 289 290
288 292 289 287 286 286 286 286 285 285 282 281 283 287 287 286 286 283 284 285 282 281 282 284 279 276 278 281 283 284 283 283 284 283 283 284 284 284 284 284 284 285 284 284 284 284 284 284 285 285 285 286 286 286 287 287 288 288 288 289 289 290 290 290 290 291 291 291 290 290 290 289 288 287 287 286 286 287 287 287 287 288 288 288 288 288
290 290 291 291 287 285 285 285 283 287 283 284 285 286 288 287 285 284 283 284 279 279 284 282 281 274 279 282 283 282 282 282 283 282 283 283 283 283 283 283 283 283 283 284 284 284 283 284 284 284 284 285 285 285 286 287 287 287 288 288 288 289 289 290 290 290 291 290 289 289 288 287 287 286 286 286 287 287 286 287 287 287 287 287 287 287
289 287 288 288 287 286 284 284 284 287 285 282 284 283 285 284 284 283 283 284 280 280 282 282 283 277 276 281 283 283 282 281 281 282 283 283 283 283 283 283 282 283 282 282 283 283 283 283 283 283 284 284 284 285 285 286 286 286 286 286 287 287 288 288 289 289 290 289 288 288 287 287 286 286 285 286 286 286 286 286 285 285 285 286 286 286
288 287 286 286 286 285 286 285 285 288 287 284 285 283 283 285 283 282 283 282 281 282 279 279 282 280 276 279 281 282 281 281 281 281 282 283 283 283 283 283 282 283 283 282 282 282 282 282 283 283 283 284 284 285 285 285 285 286 286 286 286 286 286 286 287 287 287 288 287 287 286 285 286 286 285 285 285 285 285 284 284 284 284 284 284 285
289 290 288 288 286 285 286 285 286 289 287 286 283 283 282 281 281 280 279 283 279 279 275 279 281 277 277 278 281 281 281 280 281 282 282 282 282 282 283 283 283 282 282 282 282 282 282 282 282 282 283 283 284 284 285 285 285 285 285 285 285 285 285 285 285 285 285 285 286 285 284 284 283 284 284 283 283 283 283 282 282 283 283 283 283 283
289 290 290 288 287 287 285 285 284 287 286 285 284 284 283 280 279 278 278 276 278 272 277 281 281 283 277 279 281 280 282 281 282 281 281 282 282 282 282 283 283 282 282 282 282 281 282 282 282 282 282 282 283 283 284 284 284 284 285 284 284 284 285 285 285 285 284 284 284 284 283 283 282 282 282 282 281 281 281 281 281 281 281 282 282 283
288 288 288 287 288 286 286 286 284 284 283 285 287 282 283 283 278 276 269 274 272 270 273 277 279 281 275 276 280 279 281 281 284 282 282 282 282 282 282 282 282 282 282 281 281 281 281 281 282 281 282 282 282 283 283 283 284 284 284 284 284 284 284 284 284 284 284 284 283 283 283 282 282 281 282 281 280 280 280 280 280 280 281 281 282 282
286 289 286 288 289 289 284 284 285 284 286 284 282 283 279 273 273 271 269 273 272 273 278 277 279 279 280 281 282 281 281 281 282 283 284 283 283 282 282 282 282 281 281 281 281 281 281 281 281 281 281 281 281 282 282 282 283 283 283 283 283 283 283 284 284 284 284 283 283 283 282 282 282 282 281 281 281 280 280 280 280 281 281 281 281 281
283 282 285 288 288 289 289 285 283 283 283 283 284 279 274 271 270 267 266 264 268 273 276 280 280 277 278 280 280 280 281 282 282 282 284 284 283 283 282 281 281 281 280 281 280 280 281 281 281 281 281 281 281 281 282 282 282 282 282 282 283 282 282 283 283 283 283 283 283 283 283 282 282 282 282 281 281 281 281 281 281 282 282 282 282 282
277 280 284 286 286 287 289 289 287 281 282 284 282 284 281 272 265 269 266 273 275 274 274 275 274 270 276 280 278 280 281 281 281 282 283 282 282 281 280 280 280 280 281 280 280 281 281 282 282 281 281 280 280 281 281 281 281 281 282 282 282 281 281 282 282 282 282 283 283 284 284 283 283 282 282 282 282 281 280 281 281 282 282 282 282 283
281 281 284 285 286 285 287 285 284 283 284 281 280 282 278 280 278 277 270 267 267 270 271 273 275 276 279 280 280 279 280 280 281 281 283 282 280 280 280 281 281 280 281 281 280 281 281 281 282 281 281 281 280 281 281 281 281 281 281 281 281 281 281 281 281 281 281 281 282 283 283 284 284 284 283 283 282 281 281 280 280 280 281 282 281 282
280 280 283 285 285 285 285 285 287 286 281 282 283 279 281 282 283 274 272 272 270 269 274 270 277 280 279 280 279 279 280 280 280 280 281 281 280 280 281 281 280 281 280 280 280 280 281 281 282 282 282 281 281 280 281 281 281 280 281 281 281 280 280 281 281 281 281 282 282 282 282 282 282 282 280 280 279 279 279 279 279 279 279 279 279 280
280 278 283 284 286 286 284 285 284 284 285 283 278 282 283 283 282 280 275 269 264 270 273 271 276 277 279 276 278 279 279 279 279 280 280 280 280 280 281 281 281 281 281 280 280 279 280 280 281 281 282 282 281 281 281 281 281 281 281 280 281 280 281 281 281 281 281 281 281 281 282 282 282 281 280 280 279 279 278 278 278 278 279 279 279 279
285 280 281 282 283 286 284 287 286 286 286 283 282 283 285 277 278 279 271 272 269 268 269 273 275 277 279 281 277 278 278 280 280 280 279 280 280 281 281 281 281 280 280 280 280 280 280 280 281 280 281 282 282 282 280 281 281 282 282 282 282 282 283 283 284 283 284 284 284 284 283 283 283 282 281 281 281 282 281 281 280 279 279 280 280 281
286 279 279 284 284 285 284 284 280 283 286 285 285 284 283 281 273 273 277 271 272 268 267 271 274 277 279 281 281 283 281 281 281 280 280 281 281 282 282 282 282 282 282 281 281 281 281 281 281 281 281 281 281 282 282 282 281 282 283 283 283 284 284 284 284 284 284 284 284 284 283 282 282 282 281 280 280 280 280 280 281 281 281 280 280 279
284 285 273 280 282 283 282 283 281 283 281 282 282 279 282 277 279 278 278 274 275 268 271 274 275 276 279 280 283 284 283 282 282 282 282 282 282 283 283 283 283 282 282 282 281 281 281 281 280 281 281 281 282 282 282 282 282 283 283 283 283 283 283 283 283 283 283 283 282 282 282 282 281 281 281 280 280 280 280 280 281 280 279 279 279 278
279 280 278 276 281 281 281 281 283 283 284 283 284 282 284 278 277 276 278 277 273 276 273 274 276 282 282 282 282 282 282 283 284 283 283 283 283 283 283 283 283 283 283 283 282 282 282 282 281 280 281 281 281 281 282 283 282 282 283 282 282 282 282 282 282 282 282 282 281 280 280 279 279 279 278 278 278 278 278 278 278 278 278 278 279 278
286 282 276 274 280 284 283 285 282 283 282 281 284 282 283 281 281 276 275 274 271 276 273 274 273 281 281 280 281 282 282 283 283 282 283 284 283 283 283 283 283 283 283 283 282 282 282 281 282 281 282 282 281 282 282 283 283 283 282 282 281 281 280 279 279 279 280 279 280 279 279 278 278 278 277 277 277 277 278 277 277 277 277 277 277 277
291 282 279 280 278 279 282 281 283 283 285 285 283 280 282 282 283 283 281 277 274 273 274 271 275 280 282 282 280 281 281 281 282 282 283 284 283 283 283 283 283 283 282 282 282 282 282 282 282 282 282 283 283 282 282 282 282 281 281 279 279 278 278 278 277 277 278 278 277 277 276 276 276 277 277 277 277 277 277 277 277 277 277 277 277 277
283 281 282 275 273 277 277 282 282 282 282 282 281 279 279 280 280 279 277 276 278 278 281 276 275 280 283 282 281 280 282 281 282 282 283 283 282 283 283 283 282 282 282 282 283 283 283 282 282 283 283 283 282 281 280 280 280 280 278 277 278 278 277 277 277 277 277 277 277 276 276 276 276 276 276 276 276 276 276 276 276 276 276 276 277 277
287 284 282 277 277 274 274 271 272 275 282 280 280 279 280 283 281 281 279 279 278 281 281 278 279 284 283 282 282 282 281 281 282 283 283 283 282 283 283 283 283 283 284 284 284 283 283 283 283 282 281 280 280 280 279 278 278 278 277 277 277 277 277 277 277 276 276 276 276 276 276 276 275 276 275 275 275 275 275 275 275 275 275 276 275 275
284 283 284 284 282 280 281 277 280 281 278 280 278 280 281 281 283 281 277 277 279 281 279 282 283 282 284 283 282 282 280 280 281 282 283 283 282 281 281 282 283 283 284 284 284 283 281 280 280 280 279 279 279 278 278 278 278 278 277 277 277 276 276 277 276 277 277 276 276 276 276 275 275 275 275 275 275 275 274 274 274 274 274 275 274 274
281 283 284 283 284 284 282 280 279 283 281 279 279 280 279 279 279 281 281 279 278 276 276 283 278 280 283 284 279 279 279 279 281 280 280 282 283 283 283 281 284 281 282 281 280 280 280 280 279 279 279 278 279 278 277 277 277 277 277 276 277 276 277 278 277 277 276 276 275 275 275 275 275 275 274 274 274 274 273 273 273 273 273 273 272 272
282 282 281 283 283 282 279 281 281 282 282 282 282 282 281 279 276 278 277 282 279 279 278 281 278 278 281 281 280 282 283 283 283 284 284 283 282 281 280 281 282 281 280 279 279 280 280 280 279 279 279 279 278 277 277 277 276 276 276 276 276 276 276 276 276 275 275 274 274 274 274 274 274 273 273 273 273 272 272 271 271 271 271 271 270 271
283 278 277 280 279 278 278 279 279 280 279 280 280 280 281 279 278 281 281 281 280 281 283 282 277 279 282 280 282 284 283 283 282 283 281 281 280 281 281 280 280 279 278 279 280 280 280 279 279 279 279 278 278 277 277 276 276 276 276 276 275 275 275 274 274 273 273 273 273 273 273 273 273 272 272 271 271 270 270 269 269 269 269 269 269 269
286 280 281 276 277 275 274 276 276 277 277 276 280 280 279 278 279 280 281 280 280 280 281 280 280 281 285 283 281 280 279 280 280 281 282 280 279 279 279 279 279 278 278 279 279 279 279 278 278 277 277 278 277 277 277 277 276 276 275 275 275 274 274 273 273 272 272 272 272 272 272 272 271 270 270 269 269 268 267 268 267 267 266 267 267 267
283 277 275 275 276 275 275 277 277 275 277 276 277 279 277 277 276 279 277 280 278 279 281 279 277 279 282 280 281 280 280 282 282 282 281 281 280 278 278 278 279 278 278 278 279 279 278 278 278 277 277 277 277 276 277 276 276 275 274 274 273 273 273 272 272 271 271 272 271 271 270 269 268 267 267 267 266 266 265 265 265 265 265 265 265 265
280 277 275 274 275 278 276 277 276 277 277 276 279 280 279 279 281 280 280 280 281 282 278 276 278 283 280 278 278 278 278 278 277 277 279 279 278 277 278 279 279 278 279 279 278 278 277 278 278 278 277 276 276 277 277 276 275 274 273 273 273 272 271 271 270 269 270 270 270 269 268 267 266 265 265 265 264 264 263 263 263 263 263 263 263 264
281 281 278 280 276 273 272 274 275 274 270 274 281 282 281 279 279 277 278 280 279 281 278 281 282 279 275 276 277 278 277 275 277 279 279 280 278 277 277 278 278 278 278 277 277 277 277 277 277 276 276 276 276 276 276 275 274 273 273 272 271 270 269 269 269 268 268 268 268 267 267 266 264 264 263 263 263 263 262 261 261 262 262 262 263 262
281 282 279 279 276 272 273 274 273 269 273 280 277 278 279 279 278 278 279 279 277 278 279 278 278 275 278 279 279 278 277 276 275 276 276 277 278 278 278 277 277 277 277 276 275 275 276 277 276 276 276 275 274 273 273 272 272 272 271 271 270 269 268 268 267 267 268 267 266 265 264 264 263 262 262 262 262 261 261 261 260 261 261 261 261 261
279 280 278 277 275 273 271 273 268 270 279 278 277 275 274 273 273 274 273 275 276 277 278 277 278 278 279 279 277 276 276 275 274 274 275 275 276 278 277 277 276 276 276 276 277 277 276 276 276 276 276 275 273 272 272 271 271 270 269 269 269 268 268 267 266 267 266 265 265 264 265 263 262 261 261 261 260 260 260 260 260 260 260 260 260 260
282 279 278 276 280 273 274 272 274 279 278 279 275 273 275 275 274 274 270 274 277 277 276 276 277 278 278 276 275 273 273 274 274 275 274 275 275 276 278 278 277 276 277 277 277 278 277 276 277 277 275 273 272 271 271 270 269 268 267 267 267 266 266 266 265 265 265 264 264 263 263 262 261 260 260 260 259 259 259 259 259 259 260 259 259 260
281 280 280 278 275 280 273 272 272 271 270 275 280 277 277 277 277 277 275 271 277 274 278 277 277 278 276 274 273 272 273 275 272 275 276 276 275 276 275 276 275 276 276 276 276 275 275 275 275 275 274 272 271 270 269 268 267 267 266 266 266 265 265 264 264 264 263 263 262 263 262 261 260 260 259 258 258 258 259 259 259 259 259 259 258 258
280 281 279 279 276 277 273 271 271 270 272 279 276 275 274 275 277 274 270 269 271 272 275 276 276 276 275 274 271 272 272 266 270 275 277 276 276 275 276 276 275 276 276 276 277 276 275 275 275 273 272 270 268 267 267 266 265 266 265 265 265 264 264 264 264 263 262 263 263 262 260 260 259 259 258 258 258 258 257 258 258 258 258 258 258 258
275 276 278 276 275 277 275 273 270 274 272 272 269 272 274 272 275 272 261 261 267 270 272 274 276 275 274 274 273 273 273 265 272 276 276 277 278 277 276 276 275 275 275 275 275 275 275 274 271 270 270 269 267 266 265 265 265 264 264 264 264 263 263 263 263 263 262 262 262 260 259 259 258 258 257 258 258 257 257 258 257 257 258 257 257 257
273 273 276 273 276 276 277 273 274 273 277 271 271 271 273 271 272 263 265 267 269 271 270 274 275 276 275 272 274 270 275 277 277 277 275 274 275 275 275 275 276 276 276 275 275 276 273 272 272 271 269 268 266 265 264 264 264 264 264 263 262 262 263 262 262 262 261 261 260 258 258 257 257 257 257 256 257 257 257 257 257 257 257 256 256 256
267 271 271 275 272 273 274 272 272 276 280 276 274 275 275 274 263 267 271 272 274 273 272 274 276 275 274 274 275 276 277 277 276 275 273 274 275 275 276 276 274 274 274 274 274 272 271 270 268 267 266 265 264 264 263 263 262 262 261 262 260 262 262 261 261 261 259 258 258 257 256 256 256 256 256 255 255 255 256 256 256 256 256 256 256 255
268 268 266 270 273 272 272 269 269 265 274 277 275 274 274 269 270 274 273 273 273 275 274 274 275 275 275 275 275 276 276 274 274 275 274 273 273 275 275 275 274 274 273 272 272 271 270 268 267 266 264 264 263 263 262 260 260 260 260 259 261 261 261 261 260 260 258 257 256 255 255 255 254 255 254 254 255 254 255 255 255 255 255 255 255 255
270 262 258 265 274 266 270 267 268 275 274 277 278 273 274 278 276 275 275 273 274 273 275 275 275 275 275 276 275 275 275 274 274 273 273 272 273 273 273 272 273 273 271 271 271 270 268 268 266 264 263 263 262 262 261 259 259 259 258 260 261 261 260 258 258 257 256 255 254 254 254 253 253 254 253 254 254 254 254 254 254 254 254 254 254 254
273 268 268 266 271 268 267 273 275 273 276 278 279 277 278 280 279 275 275 277 276 275 274 274 276 276 275 276 276 275 274 275 275 275 274 275 274 273 273 273 273 273 271 270 269 268 268 267 265 263 262 262 260 260 259 259 258 258 257 260 259 258 258 257 256 254 253 253 252 252 253 253 253 253 253 253 254 253 254 254 254 254 254 253 254 254
271 271 268 269 269 272 273 275 274 274 274 277 278 278 278 279 279 275 275 276 276 276 276 276 277 276 276 275 275 272 274 275 275 274 273 274 274 273 272 272 270 269 268 267 266 266 266 264 263 262 261 261 260 260 259 259 258 256 258 259 258 257 257 255 253 252 251 251 252 252 252 252 253 253 253 253 253 253 253 253 254 254 254 253 254 253
270 271 270 270 268 269 268 272 274 277 274 275 278 280 279 277 277 277 276 277 279 277 275 276 277 277 276 275 275 276 275 275 275 275 274 273 273 273 272 271 270 269 268 266 266 264 263 263 262 261 261 260 260 259 258 256 256 257 257 256 258 257 255 252 251 252 251 252 252 252 252 252 253 253 253 252 253 253 253 254 253 253 254 254 253 253
271 274 270 272 269 271 272 272 273 274 273 275 277 277 278 279 279 277 278 278 278 276 275 276 275 273 272 272 275 275 276 275 274 274 274 274 274 273 271 270 269 267 266 265 264 263 262 262 262 260 260 260 260 259 257 256 255 255 254 255 256 253 251 251 252 251 250 251 251 252 252 252 255 255 254 253 253 253 253 254 253 253 253 254 255 255
272 274 264 268 271 273 274 272 271 273 274 276 275 275 277 278 278 277 276 276 275 275 274 273 273 275 274 275 274 274 273 274 274 275 274 274 272 271 270 270 268 267 265 263 261 261 263 261 260 259 259 259 258 257 255 254 254 254 255 256 254 252 250 251 252 251 250 250 250 251 253 253 253 253 253 253 253 253 254 254 254 254 255 257 258 258
269 272 272 269 267 270 268 271 273 267 270 276 276 276 276 277 277 277 275 274 274 275 275 274 274 273 273 274 274 273 273 275 274 273 273 274 273 272 269 267 266 264 262 262 260 259 259 257 258 257 257 257 257 255 254 253 254 253 256 253 252 251 249 251 250 249 249 251 251 251 252 253 252 252 253 253 253 253 254 258 261 261 260 260 263 266
273 275 273 270 271 270 275 276 276 277 276 278 279 277 277 277 276 276 276 276 276 276 276 275 274 274 273 273 272 273 273 275 274 272 272 272 272 271 270 267 264 263 261 260 258 257 257 256 256 255 255 256 255 254 254 253 253 253 254 254 254 252 251 250 250 251 251 250 251 253 253 252 252 253 252 253 253 253 253 253 255 261 263 264 264 266
Wind_Speed
0 3 6 7 9 9 5 9 11 9 4 1 1 1 4 5 5 6 4 4 0 1 6 8 5 4 8 3 5 5 3 9 7 7 6 5 5 5 6 6 5 6 5 5 5 6 8 9 9 7 7 7 9 12 12 13 13 13 10 12 13 9 10 10 9 9 8 7 7 10 10 9 7 8 9 11 10 11 10 12 12 12 11 12 12 11
3 4 6 9 9 10 11 9 5 1 1 3 2 2 6 2 9 4 3 1 1 2 4 1 3 9 6 3 5 4 7 8 5 4 5 5 4 5 6 6 6 3 3 7 9 10 9 10 10 8 9 10 14 12 12 12 10 10 12 13 10 10 10 10 8 6 8 6 6 8 7 8 9 10 11 10 10 9 10 13 13 12 11 12 12 11
1 8 8 13 9 1 1 2 3 6 6 1 4 2 3 8 3 8 5 3 1 4 7 2 3 10 4 3 5 7 7 4 4 3 2 3 5 5 5 5 5 6 6 7 6 8 9 10 10 8 9 9 8 8 10 9 11 12 11 10 9 10 9 9 8 9 8 7 7 7 5 6 8 7 6 8 7 9 11 12 12 12 11 11 11 11
6 4 15 10 2 3 1 2 3 1 1 4 1 2 9 2 1 6 2 2 2 1 2 1 4 10 1 4 6 5 3 3 4 5 5 4 4 4 5 3 4 5 6 8 8 8 8 8 8 9 10 9 8 9 10 11 11 9 10 9 10 10 10 9 9 7 6 6 6 8 8 8 10 7 4 8 10 11 13 13 11 11 10 11 11 11
11 3 1 3 5 5 6 2 3 3 6 2 5 5 4 3 5 8 5 2 2 0 1 1 3 7 2 2 2 2 3 5 4 5 5 5 3 3 2 4 4 5 5 6 8 8 8 9 10 9 7 6 9 10 10 9 9 7 9 9 9 10 9 9 9 9 6 7 7 6 7 6 6 8 10 11 12 9 8 10 12 10 10 10 11 10
9 8 2 3 1 3 4 4 5 5 3 3 6 11 8 7 9 4 3 4 6 3 3 1 3 3 3 2 2 1 2 3 2 5 4 3 5 4 4 4 4 5 4 5 6 6 6 6 6 7 7 9 8 9 8 6 7 8 9 10 10 10 10 10 9 9 11 11 10 11 11 11 10 11 11 11 9 9 10 8 4 10 11 10 11 10
6 2 4 7 5 4 4 5 3 7 5 0 6 9 12 8 4 3 1 2 1 1 1 2 1 5 6 1 3 1 3 3 2 3 3 3 3 3 3 3 4 4 6 6 5 5 6 6 6 7 8 7 8 6 4 5 7 9 9 9 11 10 9 9 9 9 9 12 11 12 11 9 9 9 6 4 4 5 5 6 9 8 10 10 11 10
2 1 1 1 4 5 4 5 5 9 5 4 2 3 4 4 5 4 4 6 3 1 3 1 1 3 3 6 1 3 4 2 2 1 2 1 1 1 2 2 3 4 4 3 4 5 4 5 5 6 6 6 6 4 4 6 7 10 10 10 11 10 10 9 8 11 9 11 10 12 11 10 10 9 7 5 5 5 6 10 9 9 9 11 11 11
3 0 1 2 2 4 7 4 5 8 7 3 1 3 5 6 5 4 5 5 1 0 6 2 1 1 3 5 1 3 3 0 1 3 2 1 1 0 0 1 2 3 3 2 3 3 3 4 5 5 6 5 5 5 7 6 6 7 8 10 11 12 10 9 10 11 10 10 9 9 9 11 7 6 6 4 5 6 6 10 8 9 8 9 10 10
1 0 1 5 5 5 4 2 6 11 5 1 5 6 6 6 5 3 5 4 1 1 6 4 2 3 5 4 0 1 3 4 6 6 5 3 3 3 1 1 1 2 2 2 2 2 3 3 3 3 2 5 6 5 5 5 6 7 8 11 13 11 9 8 10 10 11 9 9 11 10 10 7 5 5 5 8 7 5 9 8 7 8 7 8 8
0 4 5 4 4 3 3 2 2 0 1 5 2 6 5 7 3 3 5 2 2 2 6 6 5 5 5 4 7 6 6 4 6 1 2 3 3 3 3 2 1 1 1 1 1 2 2 2 3 3 5 4 4 4 5 6 7 6 9 10 13 8 8 8 9 10 10 9 10 10 9 9 9 7 8 10 10 8 8 9 7 7 6 7 7 7
2 1 0 1 4 3 3 3 3 1 2 3 1 2 2 1 5 2 4 4 1 6 3 1 3 3 7 5 4 4 0 3 9 11 10 8 7 6 4 3 2 1 0 0 1 2 2 3 4 4 5 4 4 5 7 6 6 8 7 9 12 10 9 8 8 10 9 9 9 9 9 10 8 7 8 9 8 6 7 6 7 6 7 8 7 8
3 8 2 2 3 7 2 6 3 3 1 2 4 3 2 4 5 2 2 2 5 5 1 2 2 1 9 6 2 2 3 1 3 2 12 12 9 7 5 4 3 1 1 1 0 1 1 2 2 3 4 4 5 6 5 6 6 6 7 7 12 10 7 8 7 10 9 9 9 8 8 7 6 7 7 7 7 4 6 5 5 6 7 6 8 7
6 2 1 2 2 3 6 5 2 1 0 4 5 4 4 0 1 3 4 1 5 5 3 0 1 3 3 5 1 3 3 3 4 5 4 9 11 9 6 4 3 2 1 1 1 1 1 1 1 2 3 3 4 4 5 4 5 5 6 6 10 7 6 5 7 7 8 8 7 6 7 6 6 7 7 6 6 5 5 4 5 6 5 6 6 6
0 3 4 5 3 0 5 5 8 4 8 8 3 7 7 7 4 4 3 4 4 3 2 4 1 5 3 3 1 5 5 4 4 5 5 4 4 4 4 3 2 2 1 1 1 2 1 1 1 2 2 3 3 4 4 4 4 4 6 7 8 7 5 5 5 6 8 7 6 6 6 6 5 6 6 5 4 3 4 3 4 4 4 5 5 5
4 5 2 2 1 1 6 0 4 5 4 2 2 5 5 6 6 5 3 3 2 2 3 1 5 3 3 0 1 2 1 2 2 5 8 6 4 4 4 4 4 4 3 3 3 2 2 0 1 2 3 2 3 3 3 4 4 5 5 5 5 5 4 4 4 5 5 4 4 4 5 5 5 4 4 4 3 2 2 2 3 3 3 3 3 2
2 2 1 4 1 1 1 1 0 2 5 2 3 4 5 2 3 1 1 1 2 3 8 2 6 4 1 1 4 2 3 1 2 5 6 6 4 4 5 5 4 4 4 4 4 3 1 0 0 1 1 2 2 3 3 3 2 4 4 5 5 4 3 4 4 4 4 4 5 4 4 4 4 4 4 4 3 2 1 2 2 3 3 2 2 1
5 4 1 3 2 1 0 1 2 4 3 7 1 7 1 1 2 3 4 2 3 4 7 3 6 3 1 7 1 2 1 2 4 6 5 4 4 5 7 6 6 6 5 4 4 3 2 1 1 1 1 1 3 3 3 3 2 3 3 4 5 4 4 3 4 4 4 4 4 4 3 3 3 3 3 3 2 2 2 2 2 2 2 2 2 2
3 3 1 1 1 3 1 1 5 2 2 2 1 2 2 3 1 2 4 4 2 5 5 3 1 4 7 6 2 4 6 8 7 6 6 8 8 9 8 8 5 4 4 4 5 3 2 2 3 3 3 2 1 2 3 3 3 3 3 3 3 4 4 4 3 3 3 3 3 3 3 3 3 2 2 1 2 2 4 5 5 5 5 5 6 7
1 2 4 0 2 1 1 3 4 2 1 2 2 2 0 1 1 3 5 3 3 5 2 6 3 10 5 6 13 10 13 13 11 9 13 13 12 11 10 8 8 7 7 6 5 4 4 4 4 4 4 4 4 3 3 3 3 3 2 3 3 3 3 3 3 3 4 3 3 3 3 3 2 3 3 3 4 5 5 5 5 5 6 6 5 4
2 1 3 1 3 1 1 2 6 8 5 2 1 1 0 1 2 2 1 3 2 2 3 6 11 3 3 4 10 11 14 15 18 19 15 13 12 12 10 9 8 8 8 7 5 5 4 5 5 4 4 4 3 2 2 2 3 1 2 3 3 4 3 4 3 4 4 4 4 4 5 5 6 6 5 5 5 5 5 5 4 4 4 4 5 4
3 1 6 1 0 2 5 1 2 4 4 7 9 8 9 5 1 1 9 3 0 2 4 2 13 7 1 1 1 1 2 10 16 17 16 14 15 14 10 8 8 8 7 6 5 5 5 5 5 3 3 3 3 3 3 1 1 2 2 2 2 2 3 3 5 5 5 4 4 4 4 4 3 3 4 5 4 4 4 4 4 4 4 4 4 3
3 2 5 1 7 8 3 0 1 1 1 2 5 4 5 2 4 3 6 5 2 4 2 1 2 11 1 2 2 2 3 8 6 4 8 12 12 7 6 6 6 6 6 7 6 6 6 5 5 5 5 5 5 4 2 1 1 0 0 1 2 3 3 3 2 2 1 3 4 5 5 5 6 4 4 4 4 4 5 5 5 5 6 6 6 6
3 2 0 2 2 4 2 1 1 1 0 0 1 2 3 5 7 9 7 5 4 1 1 1 5 5 2 1 3 3 3 4 6 7 9 7 5 5 7 6 6 5 5 4 5 6 7 6 4 5 5 5 4 3 3 3 2 1 1 1 1 1 1 3 3 3 4 4 3 3 3 4 3 5 5 6 6 7 7 7 7 6 7 6 6 7
2 2 4 1 2 2 3 2 2 2 2 1 2 2 1 2 4 2 4 1 1 7 8 5 15 10 0 1 3 3 3 4 7 6 7 9 6 6 6 6 4 5 4 5 7 8 7 6 7 8 7 6 5 4 3 4 2 0 0 1 2 1 1 2 2 2 2 2 3 4 5 5 5 5 6 6 5 6 6 6 6 6 6 7 7 7
3 3 6 5 10 10 9 4 4 3 6 3 1 0 3 6 5 3 5 2 8 3 8 5 12 3 2 1 3 3 3 2 3 5 2 2 5 7 6 5 6 5 7 8 7 8 10 9 7 6 6 5 4 5 4 3 1 0 1 1 0 0 0 0 0 1 3 3 4 4 5 4 4 4 4 4 4 4 4 5 5 5 5 5 6 6
2 0 4 7 9 11 8 4 3 4 2 5 4 6 6 4 4 3 3 2 10 1 3 9 6 2 8 2 1 2 2 5 6 6 10 8 6 5 4 4 5 6 7 10 11 8 5 5 8 7 5 5 5 4 3 1 0 0 0 0 0 0 1 1 3 4 5 5 5 4 3 3 3 3 2 3 3 3 3 3 4 4 4 4 4 5
2 2 5 6 7 7 1 2 3 6 5 3 5 5 5 6 7 8 8 9 4 0 13 9 5 5 13 9 3 3 4 5 6 5 5 6 7 6 5 3 4 5 5 4 4 7 10 10 7 7 6 5 5 2 1 1 1 1 2 3 3 3 4 4 5 5 4 4 3 2 1 1 0 1 1 1 2 3 4 4 5 5 5 5 6 6
4 5 2 3 5 3 1 1 2 2 4 4 7 8 9 7 6 9 8 10 6 11 17 8 5 6 8 3 4 7 8 9 12 13 9 3 1 1 1 2 4 6 5 5 7 8 9 9 8 7 6 5 4 4 3 3 2 3 3 3 3 4 4 3 4 3 3 2 2 1 1 1 1 2 3 4 5 6 7 7 6 6 6 6 6 6
2 4 2 1 4 3 1 1 0 5 3 4 8 10 9 7 11 11 11 5 10 11 11 6 2 10 10 2 4 5 3 3 3 1 1 2 3 2 3 7 9 7 7 9 10 10 8 7 6 6 5 5 5 5 4 4 4 4 5 4 3 3 2 3 3 3 2 3 2 2 2 3 3 4 5 7 8 7 7 7 8 8 8 8 7 7
3 3 7 0 1 4 1 2 1 1 3 6 12 12 4 4 4 7 4 5 4 7 9 9 12 17 9 4 5 2 1 2 2 4 7 5 4 6 7 6 5 5 6 7 7 7 6 5 5 4 5 6 6 6 5 4 5 5 4 4 3 3 2 3 3 3 3 2 2 2 3 4 5 6 7 6 6 6 7 9 8 8 8 8 7 8
2 4 3 1 2 3 0 3 1 1 1 7 14 14 4 6 5 7 5 6 5 10 11 8 10 13 6 5 3 3 4 7 10 8 5 6 6 5 5 6 7 7 7 8 8 6 6 6 6 6 7 7 5 5 6 7 6 5 5 4 3 3 3 3 3 3 3 3 3 4 5 4 5 6 5 5 5 5 5 6 6 6 7 7 8 7
4 5 4 3 4 7 0 3 5 4 2 10 20 13 11 10 11 2 4 5 12 10 8 10 14 10 1 4 1 5 6 7 5 5 7 7 5 5 8 9 8 6 8 8 8 8 8 8 8 9 6 4 6 7 6 8 7 6 5 5 3 3 4 3 3 3 3 3 3 4 4 5 5 4 4 4 4 5 5 5 6 6 7 7 6 7
3 6 5 5 5 1 2 0 2 4 9 16 2 5 10 10 9 9 11 13 8 7 6 8 11 2 2 2 5 10 7 5 8 9 6 6 6 7 8 6 6 7 6 6 7 8 7 5 5 4 4 5 5 5 6 5 7 6 5 5 4 4 3 4 3 3 3 3 4 4 4 5 4 4 4 4 5 5 6 5 6 5 5 6 6 7
6 4 4 1 4 4 2 3 3 10 15 1 3 1 3 5 6 12 12 8 4 7 9 10 10 6 8 9 10 6 3 4 4 5 5 7 7 7 8 8 8 8 9 8 7 6 7 8 5 6 6 6 7 7 7 6 6 6 5 4 5 4 4 3 3 3 3 3 3 4 3 5 4 4 4 5 5 6 6 6 6 6 5 6 7 7
6 6 3 1 4 3 3 5 6 9 0 1 3 2 3 3 2 1 7 8 8 11 12 12 13 10 11 12 4 1 2 2 2 4 7 6 7 8 6 8 9 8 8 9 9 8 8 8 11 11 10 7 7 6 5 6 5 6 5 4 5 4 3 3 3 3 2 3 3 3 3 3 4 4 4 5 5 5 7 6 6 7 7 6 6 5
7 3 3 3 3 5 4 6 12 7 13 12 3 1 6 5 6 6 8 8 10 9 8 8 11 12 10 4 2 1 0 0 2 6 3 7 6 5 8 9 9 10 9 7 7 8 6 6 7 7 8 7 6 6 6 5 5 6 5 5 4 4 3 3 3 2 2 2 2 3 3 3 4 5 5 5 6 6 6 7 7 6 5 8 7 7
2 7 4 6 4 8 5 7 4 4 12 13 5 1 1 3 5 4 2 7 5 4 10 12 11 13 6 2 3 2 2 2 6 7 5 6 6 7 5 4 4 4 4 4 2 2 4 4 5 6 9 9 6 5 5 4 5 6 5 4 3 3 2 3 2 2 2 2 2 3 3 4 4 5 6 5 6 7 7 6 5 6 5 7 9 9
3 1 1 8 5 4 4 8 8 10 11 6 4 3 1 1 6 3 1 10 3 9 9 8 8 9 6 6 3 5 4 3 7 7 7 5 5 6 7 7 5 5 5 6 9 8 6 6 7 8 7 8 8 5 5 5 6 6 5 3 2 2 2 1 1 2 2 2 2 3 3 3 4 4 5 6 7 6 7 7 7 6 6 6 7 9
2 1 1 3 6 9 8 8 10 4 5 3 2 1 2 3 5 5 3 8 4 7 7 7 9 8 7 5 8 8 8 6 7 8 4 7 9 8 9 9 6 5 5 5 3 4 6 8 9 6 8 8 7 6 6 5 6 4 4 3 2 1 0 0 1 1 1 2 2 3 3 3 4 4 5 7 7 6 6 6 6 6 7 7 6 8
2 1 2 10 10 10 12 7 4 6 5 2 5 4 3 2 7 3 12 8 3 6 4 6 8 9 6 7 8 7 10 8 7 5 2 2 1 2 4 4 6 6 8 8 7 6 7 6 7 9 8 6 7 6 5 5 6 4 3 3 2 1 1 2 2 1 1 2 3 3 3 3 3 6 6 5 7 6 6 5 7 7 7 8 7 7
3 3 5 2 8 10 8 8 9 7 7 6 2 10 5 6 3 11 5 2 7 7 8 9 10 7 7 11 10 9 9 8 4 0 2 4 5 4 5 5 3 2 2 2 5 7 7 6 7 7 7 5 6 5 4 4 5 5 3 2 2 2 2 2 1 1 1 2 2 3 4 4 4 4 5 5 5 7 7 5 6 7 7 7 7 9
8 8 6 7 2 2 2 7 4 10 4 12 9 3 2 4 7 3 3 2 5 6 9 9 8 6 9 8 10 10 7 4 4 5 4 3 4 5 5 6 7 7 6 5 4 4 9 8 8 8 8 6 5 6 4 5 5 4 2 2 1 2 2 1 1 2 1 2 3 4 4 4 5 6 4 5 5 6 8 6 6 6 5 7 8 9
3 4 3 3 5 6 8 8 10 8 3 10 14 8 7 11 6 5 5 3 3 5 7 7 8 8 9 9 9 8 7 6 4 3 3 4 5 4 2 3 3 2 3 2 4 7 6 8 7 8 6 5 5 4 4 6 5 3 2 2 2 2 1 0 0 1 1 3 4 4 4 4 4 5 5 5 6 6 7 8 7 6 5 6 7 8
6 9 7 6 5 9 9 9 4 2 6 8 6 4 7 11 7 8 5 6 6 6 5 4 8 7 9 10 8 7 6 6 8 6 5 7 6 6 7 8 7 7 7 8 8 7 7 11 11 9 7 5 4 3 3 3 6 4 3 2 3 0 0 1 1 1 2 3 4 4 4 4 5 5 5 5 5 6 6 7 5 7 4 5 7 7
3 2 3 3 5 4 4 6 1 1 1 7 6 5 6 9 7 4 5 5 5 6 9 9 9 8 9 8 7 5 6 6 6 6 6 6 6 6 4 2 3 4 4 5 5 8 6 7 8 9 8 5 5 4 3 3 4 4 3 2 2 1 1 1 1 2 4 4 4 4 4 5 5 5 5 5 5 5 5 7 7 6 7 5 7 7
3 2 2 4 3 0 9 1 7 6 2 4 11 13 8 2 4 4 5 7 8 5 7 7 9 9 10 9 10 9 8 8 8 8 6 5 6 7 7 7 6 8 10 10 9 9 8 9 9 9 8 8 5 5 4 4 3 3 1 1 1 1 1 1 1 2 3 4 4 4 4 4 5 5 4 4 4 4 5 6 6 6 6 6 8 7
6 5 4 7 4 6 9 4 4 1 2 7 9 9 8 11 10 6 7 6 6 3 5 6 2 1 4 6 10 9 10 8 7 8 6 7 8 6 7 8 8 6 5 5 8 7 7 9 10 9 8 8 6 4 4 4 3 3 2 2 2 1 1 1 2 3 4 4 4 4 4 5 6 6 6 5 5 6 6 5 5 6 6 7 8 8
3 4 5 5 6 9 4 1 2 2 5 9 6 7 9 8 6 5 5 6 5 5 5 3 5 6 7 9 8 8 7 9 8 9 8 8 6 5 8 8 8 9 9 10 8 8 10 8 8 8 7 6 5 5 4 3 3 3 3 2 2 3 2 2 2 2 3 4 3 5 4 4 4 5 5 6 5 5 6 7 7 7 8 8 8 8
4 8 4 3 5 8 4 4 4 3 7 9 8 11 11 11 8 8 5 5 7 9 9 8 9 6 6 7 6 8 9 10 8 7 9 10 8 7 5 6 6 7 6 5 6 6 6 7 8 8 7 5 5 4 4 4 3 3 2 2 2 3 2 1 1 2 3 3 4 4 4 4 4 4 5 5 6 7 7 8 14 11 9 7 13 17
9 13 6 7 9 7 4 10 9 8 9 12 13 6 8 7 7 9 11 11 10 10 9 8 8 8 9 11 7 8 10 10 10 8 8 7 9 7 7 9 9 9 9 9 9 6 7 6 6 6 6 6 5 4 4 3 3 2 2 3 2 3 2 1 1 2 3 3 4 4 4 4 4 4 4 4 5 5 8 10 8 11 14 13 13 15
Wind_Direction
128 148 184 202 223 215 210 201 206 226 201 164 109 170 229 226 277 280 275 260 128 333 249 262 271 254 271 313 345 0 29 52 44 46 42 36 37 38 36 38 32 37 26 340 6 14 14 19 13 10 14 16 32 31 27 33 31 31 27 34 30 12 22 36 35 37 37 39 41 51 50 56 33 37 45 44 31 38 37 33 34 32 31 31 34 32
74 195 237 226 225 206 208 216 238 322 135 208 232 225 273 179 256 255 276 31 315 165 294 283 325 285 274 358 7 11 53 39 22 41 41 36 34 36 38 34 25 9 7 16 22 12 19 18 13 13 21 20 34 19 28 35 32 34 35 39 29 21 28 30 30 41 53 43 63 86 72 71 52 44 42 39 33 35 40 38 35 34 32 34 35 28
179 210 231 233 232 77 86 178 202 209 242 209 212 242 294 262 266 282 277 354 306 139 259 347 287 275 316 20 29 46 60 57 47 56 43 49 41 32 34 29 22 30 25 23 19 18 22 16 13 18 20 27 30 28 31 26 37 35 38 36 36 31 31 26 25 42 52 47 43 60 57 64 80 64 70 66 51 45 48 43 39 36 36 36 38 32
266 281 237 241 89 207 289 98 123 131 127 211 204 186 238 216 14 297 300 10 19 134 281 33 306 282 66 57 58 38 58 77 60 61 58 56 55 49 43 20 27 34 29 29 18 17 15 18 17 21 23 18 25 30 29 27 33 37 38 39 42 40 35 30 22 38 46 64 76 70 76 67 72 70 49 62 48 41 42 40 36 36 33 36 40 35
216 221 268 134 184 175 228 164 148 166 245 268 197 217 242 215 224 190 249 325 303 27 75 236 308 298 313 211 54 61 70 71 30 44 45 35 34 41 37 43 29 39 22 26 21 18 16 21 20 17 13 13 34 31 30 27 32 39 40 44 53 52 46 40 34 38 44 52 51 57 72 71 67 43 36 38 32 31 39 44 35 26 30 35 40 36
279 265 112 69 88 159 190 238 208 145 240 295 225 206 216 215 234 253 344 357 8 333 347 70 344 310 315 318 155 190 13 34 3 55 35 21 24 20 31 18 14 27 29 31 21 14 11 19 18 23 22 31 33 33 22 24 36 42 43 45 50 54 50 43 38 43 58 59 61 55 50 45 47 45 32 30 17 19 32 41 37 41 36 37 42 37
225 322 166 211 176 165 182 211 234 162 204 253 272 200 215 219 205 202 143 94 282 145 344 47 175 261 326 334 200 154 90 54 19 49 34 21 17 14 8 10 16 23 21 21 25 17 24 12 27 29 30 25 38 22 11 38 45 48 51 51 52 53 52 46 45 44 62 67 66 71 76 77 71 77 50 32 20 38 37 54 48 47 42 41 45 41
135 352 107 76 156 170 180 245 234 161 136 234 253 146 173 166 185 208 162 176 214 251 297 35 141 218 303 283 160 156 101 56 53 44 29 31 2 355 3 11 22 21 20 21 22 17 15 18 24 31 19 27 24 0 23 48 48 51 51 53 55 54 52 45 48 55 53 73 71 74 74 69 65 68 71 39 36 32 38 51 42 44 41 40 41 41
130 143 155 157 155 162 209 206 179 165 151 217 223 135 147 170 184 147 143 165 185 68 282 319 254 318 251 262 41 176 135 238 208 188 206 187 239 278 15 14 25 25 19 23 24 20 17 17 14 9 24 9 23 21 33 37 45 56 56 60 59 53 51 44 46 56 54 65 71 76 77 74 60 68 62 55 48 47 30 56 40 47 44 43 42 42
312 170 209 155 140 217 230 264 169 165 205 249 126 93 78 74 69 116 108 117 352 82 260 248 186 238 272 276 277 330 271 227 214 205 196 208 202 204 193 106 59 42 29 14 11 3 3 1 10 360 15 33 23 17 29 37 44 53 61 61 60 50 47 45 50 58 58 60 68 71 70 81 72 63 66 66 53 46 33 52 43 44 47 43 45 41
170 289 156 125 192 206 136 42 154 311 19 127 91 64 17 36 25 22 61 90 74 262 250 217 209 176 286 257 205 156 217 185 154 171 223 228 237 245 229 186 137 57 29 17 4 357 356 346 18 7 46 27 27 28 41 43 45 49 57 64 64 53 52 49 54 60 62 61 62 71 71 74 75 62 62 59 47 40 41 46 37 39 45 47 46 41
339 22 125 251 94 102 103 79 38 103 123 121 109 126 61 335 5 36 343 30 150 263 264 290 226 151 188 285 270 230 196 189 168 175 181 193 201 201 199 209 179 164 98 357 33 22 5 22 24 32 43 32 28 43 45 45 43 52 55 65 73 55 51 51 54 63 63 66 66 68 71 72 68 71 72 71 67 49 55 45 42 28 40 36 39 37
267 237 224 327 201 132 100 79 7 36 55 80 81 64 109 264 29 297 16 272 216 219 197 342 151 26 243 222 177 204 252 260 256 227 180 177 189 196 196 194 190 173 143 101 84 21 26 43 35 46 40 39 39 48 47 46 51 54 60 62 75 58 48 53 55 64 62 65 61 65 69 71 72 73 74 75 74 56 64 54 52 41 47 37 41 31
281 291 70 224 71 216 132 143 183 45 192 113 163 144 96 277 266 272 270 237 309 287 277 297 63 268 246 291 154 252 262 263 262 251 203 183 176 182 182 182 175 178 177 207 229 239 225 133 66 56 59 54 54 54 55 52 59 61 68 67 77 70 53 56 61 65 72 66 66 64 71 68 69 68 69 63 71 54 54 49 53 47 44 47 46 35
16 338 279 149 211 6 184 190 183 161 160 205 116 148 185 142 151 244 191 224 234 211 276 274 59 232 136 214 212 239 260 277 256 206 163 165 164 152 150 158 179 187 211 220 222 197 203 188 84 79 66 69 65 65 63 64 64 72 71 73 80 79 58 66 69 70 72 69 67 69 69 74 71 77 73 71 71 67 71 46 66 55 43 56 41 43
200 222 261 305 234 92 177 286 114 102 59 158 161 80 91 234 141 233 202 162 240 329 329 206 206 191 162 122 266 297 346 30 55 130 140 152 134 134 149 181 193 202 213 222 227 241 237 234 62 71 75 77 83 81 79 76 82 85 89 87 88 97 93 81 84 84 91 91 89 87 86 86 89 88 84 74 63 66 91 101 99 93 73 68 69 39
44 289 298 326 121 102 125 124 31 134 208 226 106 201 209 155 125 71 22 59 86 49 253 146 304 298 295 63 11 339 64 36 111 141 151 162 166 160 192 200 204 210 212 222 219 220 226 56 25 92 101 100 104 107 110 119 126 125 119 113 108 109 107 110 114 119 120 124 108 100 101 96 90 93 98 114 133 149 149 118 124 114 124 111 100 86
141 237 307 72 196 357 149 158 98 31 141 96 169 237 162 155 118 138 237 334 68 211 269 86 213 271 110 280 19 27 83 172 189 175 171 178 172 190 210 205 205 208 214 221 230 233 222 205 173 210 232 181 157 147 135 128 137 140 142 135 127 127 117 129 121 109 106 97 89 93 94 100 111 120 128 133 144 183 168 164 146 146 108 119 148 143
109 308 301 319 200 287 359 134 40 6 59 145 189 218 117 238 202 318 85 268 273 258 272 281 260 255 190 234 97 243 189 197 194 192 177 201 199 207 208 214 216 227 227 228 227 218 210 205 208 195 193 202 176 164 157 154 146 135 131 146 136 127 132 128 115 111 96 91 92 89 80 69 58 60 69 50 47 38 30 18 11 15 3 8 12 11
54 182 291 302 141 300 5 79 198 200 354 47 75 70 65 125 187 117 204 191 125 276 8 282 110 259 183 212 180 198 195 180 178 186 204 200 194 197 204 202 199 204 209 210 205 199 196 208 206 192 183 182 179 173 181 162 150 116 131 126 128 127 120 99 74 78 68 57 68 49 57 45 48 41 30 23 17 14 15 4 2 0 2 357 354 5
123 104 225 283 290 53 171 176 207 162 164 81 106 293 45 11 220 101 8 136 174 193 218 279 290 277 260 203 176 195 183 184 179 190 195 192 199 207 202 190 195 203 203 202 194 192 198 202 210 208 200 192 187 179 165 137 114 115 92 68 46 67 47 49 37 53 41 33 29 36 24 10 9 5 3 7 11 5 356 352 353 354 349 350 338 358
90 115 187 312 39 220 236 254 202 175 177 169 168 200 176 125 154 225 263 64 74 140 243 236 263 282 262 97 253 251 219 187 198 186 183 189 198 200 196 198 195 197 206 193 187 184 192 199 203 202 196 195 167 177 133 61 80 73 71 40 19 34 46 36 33 26 15 20 31 44 13 13 12 4 6 1 3 353 341 344 347 351 346 340 318 353
149 136 99 187 194 209 224 342 227 183 129 177 157 234 169 145 111 150 243 249 17 246 113 201 339 273 311 304 299 243 193 207 193 171 201 196 199 192 195 203 206 201 194 190 181 184 192 192 188 183 185 187 184 179 163 103 153 197 314 4 26 28 11 23 354 4 15 29 29 16 16 18 12 358 10 5 2 353 354 353 352 1 360 352 347 348
100 109 29 289 307 315 334 346 76 94 63 350 39 91 124 184 187 203 220 188 176 283 261 339 245 261 323 32 296 249 221 191 171 185 191 199 190 197 202 205 205 203 204 184 181 184 192 188 178 177 189 192 195 189 203 205 220 263 1 28 44 52 331 351 4 11 26 17 21 28 18 24 0 15 13 13 3 2 357 357 355 354 358 351 351 348
109 266 134 285 355 341 345 343 12 349 56 202 228 240 181 105 68 109 92 88 225 213 227 207 255 264 252 358 21 56 103 141 176 193 184 190 199 204 210 214 209 204 173 183 189 190 186 181 184 193 190 191 196 202 208 211 219 236 105 62 34 5 337 344 349 24 47 56 42 32 37 22 19 18 11 6 1 355 352 353 353 355 355 352 350 347
172 182 128 194 232 245 244 189 242 251 220 229 205 231 249 169 153 124 229 162 238 196 190 221 255 254 282 341 44 71 99 142 199 199 206 228 196 206 214 207 204 187 198 193 188 183 192 191 193 193 196 200 205 205 208 200 185 45 57 18 327 300 305 320 45 72 76 55 58 40 38 21 15 15 4 360 352 350 346 351 357 356 352 354 343 338
167 93 181 191 197 234 234 196 239 105 60 185 237 192 212 192 202 150 89 170 222 333 257 242 243 11 292 210 172 114 158 180 200 196 198 210 230 228 221 210 196 196 195 196 194 190 171 190 203 202 197 203 209 209 206 171 55 98 97 76 45 178 124 56 72 58 61 55 61 52 29 18 1 356 356 347 344 352 11 13 4 4 357 349 343 334
74 223 232 222 238 251 178 191 201 170 198 226 205 245 196 181 164 168 188 233 134 229 258 243 120 241 254 260 186 218 225 223 231 223 210 218 222 207 214 189 187 208 220 194 182 183 191 199 199 201 204 209 220 199 172 137 153 173 151 124 78 59 61 49 64 62 64 70 67 73 21 354 322 39 12 25 37 33 22 11 6 3 354 348 346 341
148 216 254 139 258 224 142 239 174 176 226 232 233 237 235 193 153 186 224 227 148 223 257 266 165 208 252 254 195 210 197 201 204 205 207 195 141 169 167 218 230 228 216 195 202 200 196 196 197 200 204 214 203 201 199 178 149 112 90 79 68 63 58 64 82 82 96 103 99 62 42 11 32 34 33 27 26 20 9 3 357 351 348 346 341 341
87 252 201 139 242 284 300 100 187 202 256 269 248 241 231 184 198 201 225 200 191 232 247 265 173 241 242 188 182 227 202 198 225 181 181 185 196 195 222 229 225 213 199 202 204 204 201 198 194 201 203 209 202 204 183 167 145 131 121 105 85 80 64 89 99 108 98 79 58 34 33 40 34 25 25 24 16 9 360 352 349 344 342 342 341 336
140 274 97 144 191 265 259 66 36 179 214 254 256 250 206 156 169 216 224 235 249 285 278 286 273 270 269 165 208 255 184 224 323 273 222 204 218 226 238 258 267 243 218 215 211 206 200 202 206 207 208 215 207 201 179 146 132 123 117 122 122 112 110 118 112 103 98 82 61 50 43 40 28 23 26 16 8 360 354 348 343 339 335 337 338 334
127 252 56 88 193 286 168 142 140 32 348 257 267 252 147 180 191 217 217 206 189 228 241 252 264 262 282 108 183 224 221 229 232 238 271 281 265 265 256 248 240 231 215 211 209 198 199 204 207 208 212 211 195 166 147 139 140 138 140 142 129 123 117 98 85 76 65 57 46 46 41 33 28 23 17 8 359 350 344 338 337 333 333 331 331 331
181 141 154 146 201 234 30 141 153 136 310 285 253 243 192 212 220 193 235 206 217 216 228 240 245 261 236 158 138 243 215 232 249 243 244 253 253 222 232 235 232 219 212 204 197 200 203 203 203 202 197 169 156 148 150 144 144 148 149 135 134 110 87 81 82 71 60 49 55 44 37 28 21 10 3 355 347 338 336 336 330 331 332 328 323 321
137 166 187 180 195 153 18 68 142 136 229 239 29 147 167 199 204 219 238 235 223 173 212 222 250 270 100 204 217 253 228 209 212 233 211 209 225 232 237 236 228 218 211 205 200 196 204 200 193 177 161 148 136 136 140 152 138 136 133 124 113 97 94 91 64 74 68 65 56 38 34 25 13 360 347 341 338 338 334 333 328 323 318 315 319 318
170 174 175 155 142 177 117 88 172 213 234 98 208 297 150 156 170 211 234 255 208 213 237 254 260 259 240 232 239 247 227 231 237 228 232 222 210 212 212 212 211 205 203 199 206 208 199 189 159 139 140 150 150 147 138 130 130 127 114 113 99 93 90 81 82 63 71 64 51 38 27 17 1 346 337 336 335 333 329 326 321 322 321 320 316 318
169 156 159 82 117 57 96 197 222 232 225 307 360 62 50 72 37 43 300 263 230 210 213 232 243 240 239 245 249 181 210 248 267 238 233 244 209 207 193 206 207 194 199 204 194 201 182 180 175 171 167 156 149 149 139 137 135 115 105 91 95 88 89 90 80 81 69 53 38 32 18 6 344 338 334 331 331 328 323 322 319 320 320 313 307 298
169 118 145 206 170 212 187 191 241 338 311 274 200 222 182 176 182 176 246 262 232 203 195 220 239 246 245 247 175 166 5 28 338 300 251 216 221 213 201 208 191 199 201 204 192 195 190 175 167 163 142 148 147 139 134 126 115 111 104 89 87 90 84 81 80 86 63 46 26 18 7 355 341 330 331 328 325 321 318 320 319 316 315 308 307 307
321 175 203 190 252 193 199 246 262 258 249 255 249 225 45 173 151 180 175 282 270 152 196 204 221 242 237 176 160 142 85 51 306 275 246 226 209 208 233 239 233 219 212 188 131 109 144 142 121 135 146 144 132 123 122 117 117 110 102 99 90 87 71 73 84 85 51 24 14 2 354 346 339 327 325 324 317 314 312 310 303 301 311 305 307 305
6 80 276 208 212 210 209 219 216 239 243 258 235 177 328 35 126 105 101 271 255 191 213 180 212 235 209 179 168 135 110 191 251 258 256 231 222 201 207 228 211 210 204 190 182 176 169 160 150 144 135 137 135 132 121 118 114 107 107 110 97 87 84 52 99 60 36 355 5 346 343 334 331 321 315 311 306 307 306 308 304 302 301 290 292 292
68 22 145 239 212 218 227 231 239 220 253 267 204 225 201 133 99 66 343 280 268 217 205 173 204 219 211 181 149 155 156 193 246 252 222 206 212 204 195 208 208 214 219 199 221 179 147 135 125 135 151 156 145 132 127 117 106 109 118 111 106 93 103 120 103 75 38 3 348 337 328 324 321 310 305 301 301 300 294 297 300 298 299 297 292 295
145 300 208 213 221 229 228 256 275 269 265 197 166 161 140 121 81 104 238 233 245 215 217 187 210 214 176 149 162 170 224 199 203 215 199 181 135 227 226 219 210 199 196 188 182 140 142 152 155 159 156 139 134 130 123 117 111 118 121 123 108 183 175 112 86 50 17 352 322 314 309 310 302 296 291 285 290 293 294 292 293 298 298 299 298 291
343 83 324 293 229 222 233 249 245 278 244 150 276 140 172 93 214 225 236 202 162 205 212 202 207 209 165 176 186 205 219 224 225 256 166 175 192 219 203 198 149 82 72 117 138 143 137 136 122 116 112 123 127 124 121 117 115 129 136 135 182 194 114 94 75 37 347 309 305 299 299 293 287 280 282 287 289 293 290 286 284 289 294 293 298 299
194 139 209 201 201 56 180 237 279 263 267 127 133 74 291 151 235 195 189 238 193 193 181 211 215 217 173 203 209 211 235 254 218 229 238 228 215 232 202 175 188 185 166 144 153 172 151 144 148 145 140 133 127 122 119 115 123 138 139 161 205 117 95 93 50 331 306 301 292 289 286 284 283 286 287 288 286 288 293 294 292 288 287 295 297 294
212 99 255 264 191 156 192 200 210 222 122 161 138 178 206 208 196 168 143 230 212 181 197 194 223 208 195 195 202 226 232 242 281 242 236 249 240 247 197 182 177 155 156 182 171 166 156 142 140 139 138 136 129 125 126 126 134 147 157 208 123 120 106 88 305 305 294 280 277 280 280 279 282 281 283 283 287 284 286 291 289 287 288 286 288 295
214 185 180 183 216 157 198 218 226 164 165 198 185 189 198 217 210 193 172 182 180 232 196 191 223 213 199 206 212 201 215 224 228 226 196 231 222 220 212 211 197 192 183 175 176 170 167 164 159 145 139 140 135 130 125 123 130 144 170 176 112 119 152 215 220 266 273 271 275 278 274 279 278 281 279 277 279 290 287 289 290 297 288 279 287 285
299 164 179 86 255 257 271 229 101 55 198 198 244 223 212 226 235 157 187 223 235 205 172 192 219 208 205 202 191 230 210 225 224 244 225 230 219 227 223 201 180 155 146 141 150 171 159 136 138 146 148 143 147 133 127 125 131 156 204 140 125 164 181 191 217 269 268 273 275 277 287 295 289 278 276 275 271 265 272 280 292 289 292 287 280 280
246 139 134 205 270 303 267 131 138 202 186 191 218 237 243 267 246 188 208 228 240 205 205 222 215 206 198 181 193 206 221 223 229 244 239 230 225 216 201 201 194 181 176 183 179 150 148 152 154 163 159 160 163 154 151 142 144 165 152 157 196 192 163 168 219 252 269 275 280 285 289 292 296 296 285 282 280 271 273 276 274 276 282 281 282 282
300 176 167 226 229 192 243 145 206 324 272 219 219 229 244 247 243 221 220 231 239 229 204 228 223 153 136 180 203 202 227 224 210 235 238 232 231 210 194 196 188 184 194 167 156 160 150 162 166 166 165 166 168 161 154 148 161 171 170 194 203 172 151 201 224 244 261 275 283 289 288 288 290 293 300 291 287 292 288 273 260 266 266 274 278 283
189 102 233 180 203 241 272 89 195 304 297 274 243 229 238 248 259 267 241 248 262 260 253 245 203 201 182 210 197 205 224 240 213 216 225 237 231 207 201 195 189 183 164 161 170 168 171 167 160 164 160 162 158 157 161 169 180 180 191 202 176 160 168 214 243 263 278 280 286 285 283 281 284 287 291 296 284 262 258 279 283 273 264 246 244 248
75 240 204 78 243 248 200 235 165 235 260 264 245 224 225 232 228 241 248 239 235 236 232 226 243 225 216 225 198 192 212 236 227 202 221 226 221 212 190 178 169 158 160 155 145 153 146 156 154 157 161 161 159 167 175 183 190 194 192 201 189 166 173 211 232 268 276 277 279 282 288 285 285 286 286 287 295 300 288 269 286 285 285 283 289 291
196 228 148 201 223 255 245 224 196 216 246 251 259 237 208 220 205 216 228 232 239 231 226 214 234 246 234 238 209 199 222 229 232 201 217 226 229 209 189 166 163 169 167 158 148 157 156 155 152 148 156 166 168 177 182 179 187 198 205 195 196 174 193 184 220 262 272 281 275 278 282 288 290 282 281 284 295 298 304 310 301 298 294 292 299 307